EW6604 Weather Reports


Display with metric or nautical units.
time (UTC)temp
F
wind
direction
speed
MPH
gust
MPH
rain 1hr
in
rain 24hr
in
rain mn
in
humidity
%
barometer
mb
20260507101223 69 263 0.0 1.0 0.00 0.00 0.00 83 1014.5
20260507100713 69 263 0.0 2.0 0.00 0.00 0.00 84 1014.5
20260507100234 69 203 0.0 2.0 0.00 0.00 0.00 84 1014.4
20260507095223 69 192 0.0 1.0 0.00 0.00 0.00 84 1014.4
20260507094707 69 184 0.0 1.0 0.00 0.00 0.00 84 1014.2
20260507094211 69 203 0.0 2.0 0.00 0.00 0.00 84 1014.3
20260507093716 69 209 0.0 2.0 0.00 0.00 0.00 84 1014.3
20260507093222 69 147 0.0 2.0 0.00 0.00 0.00 85 1014.3
20260507092726 69 191 0.0 4.0 0.00 0.00 0.00 84 1014.1
20260507092211 68 158 1.0 4.0 0.00 0.00 0.00 85 1014.1
20260507091735 68 186 0.0 1.0 0.00 0.00 0.00 85 1014.1
20260507091219 68 192 0.0 1.0 0.00 0.00 0.00 85 1014.2
20260507090708 68 183 0.0 2.0 0.00 0.00 0.00 85 1014.2
20260507090213 68 183 0.0 2.0 0.00 0.00 0.00 85 1014.1
20260507085717 68 219 0.0 2.0 0.00 0.00 0.00 85 1014.1
20260507085220 68 211 0.0 1.0 0.00 0.00 0.00 85 1014.0
20260507084725 68 210 0.0 1.0 0.00 0.00 0.00 85 1013.9
20260507084210 68 149 0.0 1.0 0.00 0.00 0.00 84 1013.9
20260507083715 69 147 0.0 0.0 0.00 0.00 0.00 84 1014.0
20260507083219 69 147 0.0 0.0 0.00 0.00 0.00 85 1014.1
20260507082724 69 147 0.0 0.0 0.00 0.00 0.00 85 1014.0
20260507082207 69 147 0.0 0.0 0.00 0.00 0.00 85 1014.0
20260507081716 69 147 0.0 0.0 0.00 0.00 0.00 85 1014.0
20260507081220 69 147 0.0 0.0 0.00 0.00 0.00 85 1014.2
20260507080714 70 147 0.0 0.0 0.00 0.00 0.00 84 1014.1
20260507080220 70 147 0.0 0.0 0.00 0.00 0.00 84 1014.2
20260507075725 70 147 0.0 0.0 0.00 0.00 0.00 84 1014.3
20260507075208 70 147 0.0 0.0 0.00 0.00 0.00 84 1014.3
20260507074711 70 147 0.0 0.0 0.00 0.00 0.00 84 1014.4
20260507074216 70 147 0.0 0.0 0.00 0.00 0.00 84 1014.2
20260507073720 70 147 0.0 0.0 0.00 0.00 0.00 83 1014.3
20260507073226 70 147 0.0 0.0 0.00 0.00 0.00 83 1014.2
20260507072730 70 147 0.0 2.0 0.00 0.00 0.00 83 1014.1
20260507072212 70 149 0.0 2.0 0.00 0.00 0.00 83 1014.1
20260507071721 70 149 0.0 2.0 0.00 0.00 0.00 82 1014.2
20260507071217 70 159 1.0 2.0 0.00 0.00 0.00 82 1014.3
20260507070721 70 146 1.0 2.0 0.00 0.00 0.00 81 1014.3
20260507070244 70 132 0.0 1.0 0.00 0.00 0.00 81 1014.4
20260507065707 70 210 0.0 0.0 0.00 0.00 0.00 81 1014.6
20260507065212 70 210 0.0 1.0 0.00 0.00 0.00 81 1014.6
20260507064716 70 210 0.0 1.0 0.00 0.00 0.00 80 1014.7
20260507064241 71 211 0.0 2.0 0.00 0.00 0.00 80 1014.6
20260507063725 71 151 0.0 2.0 0.00 0.00 0.00 80 1014.6
20260507063211 71 176 0.0 1.0 0.00 0.00 0.00 79 1014.6
20260507062715 71 176 0.0 1.0 0.00 0.00 0.00 79 1014.7
20260507062221 71 176 0.0 2.0 0.00 0.00 0.00 79 1014.8
20260507061710 71 177 0.0 2.0 0.00 0.00 0.00 78 1014.9
20260507061215 71 172 0.0 1.0 0.00 0.00 0.00 78 1015.0
20260507060711 71 173 0.0 1.0 0.00 0.00 0.00 78 1015.2
20260507060237 71 185 0.0 0.0 0.00 0.00 0.00 78 1015.3
20260507055720 71 185 0.0 0.0 0.00 0.00 0.00 78 1015.4
20260507055224 71 185 0.0 0.0 0.00 0.00 0.00 78 1015.5
20260507054708 71 185 0.0 0.0 0.00 0.00 0.00 78 1015.6
20260507054212 71 185 0.0 0.0 0.00 0.00 0.00 77 1015.5
20260507053717 71 185 0.0 0.0 0.00 0.00 0.00 77 1015.6
20260507053220 72 185 0.0 0.0 0.00 0.00 0.00 77 1015.6
20260507052725 72 186 0.0 0.0 0.00 0.00 0.00 77 1015.6
20260507052209 72 185 0.0 0.0 0.00 0.00 0.00 77 1015.6
20260507051718 72 185 0.0 1.0 0.00 0.00 0.00 77 1015.6
20260507051241 72 185 0.0 1.0 0.00 0.00 0.00 76 1015.5
20260507050745 72 186 0.0 0.0 0.00 0.00 0.00 76 1015.5
20260507050208 72 186 0.0 0.0 0.00 0.00 0.00 76 1015.6
20260507045709 72 186 0.0 0.0 0.00 0.00 0.00 75 1015.7
20260507045234 72 186 0.0 0.0 0.00 0.00 0.00 75 1015.6
20260507044738 72 186 0.0 1.0 0.00 0.00 0.00 75 1015.5
20260507044240 72 185 0.0 1.0 0.00 0.00 0.00 76 1015.6
20260507043721 72 148 0.0 1.0 0.00 0.00 0.00 75 1015.5
20260507043207 72 148 0.0 0.0 0.00 0.00 0.00 75 1015.5
20260507042712 72 147 0.0 1.0 0.00 0.00 0.00 75 1015.4
20260507042217 72 139 0.0 1.0 0.00 0.00 0.00 74 1015.5
20260507041722 73 191 0.0 1.0 0.00 0.00 0.00 74 1015.5
20260507041207 73 191 0.0 0.0 0.00 0.00 0.00 73 1015.6
20260507040713 73 191 0.0 1.0 0.00 0.00 0.00 73 1015.6
20260507040224 74 191 0.0 2.0 0.00 0.00 0.00 72 1015.6
20260507035708 74 191 0.0 2.0 0.00 0.00 0.00 72 1015.7
20260507035213 74 241 0.0 1.0 0.00 0.00 0.00 71 1015.8
20260507034717 75 243 0.0 2.0 0.00 0.00 0.00 71 1015.8
20260507034222 75 244 0.0 4.0 0.00 0.00 0.00 70 1015.7
20260507033747 75 198 1.0 4.0 0.00 0.00 0.00 70 1015.6
20260507033230 75 167 1.0 4.0 0.00 0.00 0.00 70 1015.7
20260507032713 75 143 0.0 6.0 0.00 0.00 0.00 71 1015.6
20260507032218 74 132 1.0 6.0 0.00 0.00 0.00 72 1015.5
20260507031723 74 179 1.0 2.0 0.00 0.00 0.00 72 1015.5
20260507031207 75 195 0.0 2.0 0.00 0.00 0.00 72 1015.4
20260507030712 75 184 1.0 2.0 0.00 0.00 0.00 73 1015.4
20260507030219 74 187 0.0 2.0 0.00 0.00 0.00 73 1015.6
20260507025723 75 196 1.0 2.0 0.00 0.00 0.00 73 1015.5
20260507025226 75 198 0.0 2.0 0.00 0.00 0.00 74 1015.5
20260507024731 75 159 0.0 2.0 0.00 0.00 0.00 74 1015.5
20260507024213 75 151 0.0 1.0 0.00 0.00 0.00 74 1015.5
20260507023717 75 162 0.0 1.0 0.00 0.00 0.00 74 1015.5
20260507023221 75 141 0.0 1.0 0.00 0.00 0.00 75 1015.5
20260507022726 75 214 0.0 1.0 0.00 0.00 0.00 75 1015.5
20260507022211 75 118 0.0 2.0 0.00 0.00 0.00 76 1015.4
20260507021717 75 194 0.0 2.0 0.00 0.00 0.00 76 1015.4
20260507021220 75 113 0.0 1.0 0.00 0.00 0.00 76 1015.4
20260507020720 75 106 0.0 0.0 0.00 0.00 0.00 76 1015.3
20260507020227 76 106 0.0 0.0 0.00 0.00 0.00 75 1015.4
20260507015720 76 106 0.0 0.0 0.00 0.00 0.00 75 1015.4
20260507015225 76 106 0.0 0.0 0.00 0.00 0.00 74 1015.3
20260507014731 76 106 0.0 1.0 0.00 0.00 0.00 73 1015.4
20260507014214 77 106 0.0 2.0 0.00 0.00 0.00 73 1015.4
20260507013723 77 122 1.0 2.0 0.00 0.00 0.00 73 1015.5
20260507013208 77 101 0.0 1.0 0.00 0.00 0.00 73 1015.5
20260507012712 77 205 0.0 1.0 0.00 0.00 0.00 72 1015.4
20260507012217 77 205 0.0 1.0 0.00 0.00 0.00 72 1015.3
20260507011722 77 205 1.0 1.0 0.00 0.00 0.00 72 1015.4
20260507011225 77 203 0.0 2.0 0.00 0.00 0.00 70 1015.2
20260507010710 78 203 0.0 2.0 0.00 0.00 0.00 70 1015.0
20260507010215 78 163 0.0 1.0 0.00 0.00 0.00 70 1014.8
20260507005719 78 127 0.0 1.0 0.00 0.00 0.00 69 1014.8
20260507005224 78 119 0.0 2.0 0.00 0.00 0.00 69 1014.8
20260507004708 79 189 0.0 3.0 0.00 0.00 0.00 68 1014.5
20260507004231 79 113 1.0 3.0 0.00 0.00 0.00 67 1014.5
20260507003718 79 115 1.0 5.0 0.00 0.00 0.00 66 1014.3
20260507003223 80 106 1.0 5.0 0.00 0.00 0.00 66 1014.4
20260507002727 80 104 1.0 8.0 0.00 0.00 0.00 65 1014.4
20260507002210 80 114 2.0 8.0 0.00 0.00 0.00 65 1014.4
20260507001713 81 101 3.0 7.0 0.00 0.00 0.00 65 1014.4
20260507001218 81 94 2.0 7.0 0.00 0.00 0.00 64 1014.3
20260507000710 81 94 1.0 7.0 0.00 0.00 0.00 64 1014.3
20260507000216 82 85 2.0 6.0 0.00 0.00 0.00 64 1014.2
20260506235720 82 101 2.0 6.0 0.00 0.00 0.00 63 1014.2
20260506235224 82 82 2.0 6.0 0.00 0.00 0.00 63 1014.2
20260506234709 83 95 2.0 6.0 0.00 0.00 0.00 63 1014.1
20260506234216 83 81 2.0 8.0 0.00 0.00 0.00 62 1014.1
20260506233721 84 108 4.0 8.0 0.00 0.00 0.00 62 1014.1
20260506233224 84 89 2.0 10.0 0.00 0.00 0.00 63 1014.0
20260506232725 84 90 4.0 12.0 0.00 0.00 0.00 62 1014.2
20260506232210 84 108 4.0 9.0 0.00 0.00 0.00 62 1014.3
20260506231735 85 101 3.0 9.0 0.00 0.00 0.00 62 1014.3
20260506231219 85 105 4.0 11.0 0.00 0.00 0.00 61 1014.3
20260506230723 85 96 5.0 12.0 0.00 0.00 0.00 61 1014.3
20260506230210 85 112 6.0 13.0 0.00 0.00 0.00 62 1014.3
20260506225713 85 105 9.0 13.0 0.00 0.00 0.00 62 1014.2
20260506225217 85 94 8.0 13.0 0.00 0.00 0.00 61 1014.2
20260506224721 85 107 6.0 11.0 0.00 0.00 0.00 61 1014.1
20260506224210 85 113 6.0 10.0 0.00 0.00 0.00 61 1014.0
20260506223735 85 79 5.0 12.0 0.00 0.00 0.00 61 1013.9
20260506223240 85 134 5.0 11.0 0.00 0.00 0.00 63 1014.0
20260506222723 85 116 6.0 16.0 0.00 0.00 0.00 62 1014.0
20260506222225 85 96 9.0 16.0 0.00 0.00 0.00 63 1014.1
20260506221730 85 92 8.0 17.0 0.00 0.00 0.00 64 1014.1
20260506221214 85 137 11.0 17.0 0.00 0.00 0.00 68 1014.1
20260506220725 85 111 11.0 16.0 0.00 0.00 0.00 65 1014.2
20260506220212 85 92 8.0 16.0 0.00 0.00 0.00 66 1014.2
20260506215715 86 89 13.0 15.0 0.00 0.00 0.00 68 1014.2
20260506215219 86 96 11.0 15.0 0.00 0.00 0.00 67 1014.2
20260506214741 87 87 8.0 15.0 0.00 0.00 0.00 63 1014.2
20260506214244 86 92 10.0 15.0 0.00 0.00 0.00 65 1014.2
20260506213708 87 89 11.0 14.0 0.00 0.00 0.00 65 1014.2
20260506213214 87 110 10.0 14.0 0.00 0.00 0.00 63 1014.2
20260506212723 88 85 9.0 13.0 0.00 0.00 0.00 63 1014.3
20260506212227 89 75 9.0 13.0 0.00 0.00 0.00 58 1014.3
20260506211709 89 71 4.0 9.0 0.00 0.00 0.00 51 1014.3
20260506211213 89 83 7.0 9.0 0.00 0.00 0.00 48 1014.3
20260506210717 88 139 4.0 5.0 0.00 0.00 0.00 51 1014.4
20260506210222 88 57 2.0 7.0 0.00 0.00 0.00 55 1014.3
20260506205745 88 61 5.0 10.0 0.00 0.00 0.00 54 1014.4
20260506205209 88 86 8.0 10.0 0.00 0.00 0.00 52 1014.4
20260506204714 87 68 5.0 8.0 0.00 0.00 0.00 55 1014.4
20260506204218 87 73 6.0 8.0 0.00 0.00 0.00 60 1014.4
20260506203723 87 38 4.0 6.0 0.00 0.00 0.00 61 1014.4
20260506203212 86 40 5.0 6.0 0.00 0.00 0.00 62 1014.5
20260506202714 86 54 5.0 7.0 0.00 0.00 0.00 61 1014.6
20260506202219 86 46 6.0 7.0 0.00 0.00 0.00 59 1014.7
20260506201742 86 41 5.0 7.0 0.00 0.00 0.00 64 1014.7
20260506201227 86 49 5.0 6.0 0.00 0.00 0.00 61 1014.7
20260506200720 86 55 5.0 6.0 0.00 0.00 0.00 59 1014.7
20260506200224 86 51 4.0 5.0 0.00 0.00 0.00 58 1014.7
20260506195708 86 56 4.0 6.0 0.00 0.00 0.00 58 1014.8
20260506195211 86 65 4.0 7.0 0.00 0.00 0.00 59 1014.8
20260506194717 86 54 5.0 7.0 0.00 0.00 0.00 59 1014.9
20260506194220 86 58 4.0 6.0 0.00 0.00 0.00 62 1015.0
20260506193725 86 52 4.0 6.0 0.00 0.00 0.00 58 1015.0
20260506193216 85 52 4.0 6.0 0.00 0.00 0.00 60 1015.2
20260506192720 85 67 5.0 8.0 0.00 0.00 0.00 61 1015.2
20260506192225 85 67 6.0 8.0 0.00 0.00 0.00 60 1015.4
20260506191711 85 77 5.0 10.0 0.00 0.00 0.00 57 1015.5
20260506191215 85 59 7.0 10.0 0.00 0.00 0.00 58 1015.4
20260506190719 85 64 7.0 8.0 0.00 0.00 0.00 62 1015.5
20260506190244 85 68 6.0 6.0 0.00 0.00 0.00 59 1015.6
20260506185746 85 54 5.0 6.0 0.00 0.00 0.00 57 1015.6
20260506185211 85 42 5.0 6.0 0.00 0.00 0.00 58 1015.7
20260506184716 84 45 5.0 6.0 0.00 0.00 0.00 59 1015.8
20260506184221 84 44 5.0 6.0 0.00 0.00 0.00 59 1015.9
20260506183725 84 45 4.0 6.0 0.00 0.00 0.00 62 1016.0
20260506183230 84 46 4.0 6.0 0.00 0.00 0.00 58 1016.0
20260506182717 84 45 5.0 6.0 0.00 0.00 0.00 60 1016.2
20260506182223 84 52 4.0 7.0 0.00 0.00 0.00 61 1016.2
20260506181708 84 47 6.0 7.0 0.00 0.00 0.00 59 1016.2
20260506181213 84 47 4.0 7.0 0.00 0.00 0.00 60 1016.2
20260506180718 84 50 5.0 7.0 0.00 0.00 0.00 61 1016.2
20260506180242 84 51 3.0 7.0 0.00 0.00 0.00 60 1016.2
20260506175725 84 56 4.0 7.0 0.00 0.00 0.00 60 1016.3
20260506175226 84 37 4.0 6.0 0.00 0.00 0.00 60 1016.4
20260506174709 84 24 5.0 5.0 0.00 0.00 0.00 59 1016.5
20260506174213 85 88 3.0 5.0 0.00 0.00 0.00 57 1016.6
20260506173718 85 79 0.0 2.0 0.00 0.00 0.00 57 1016.6
20260506173224 85 188 1.0 3.0 0.00 0.00 0.00 55 1016.7
20260506172712 85 97 1.0 7.0 0.00 0.00 0.00 56 1016.8
20260506172217 85 208 1.0 8.0 0.00 0.00 0.00 57 1016.8
20260506171721 84 205 1.0 8.0 0.00 0.00 0.00 59 1016.7
20260506171222 84 279 2.0 8.0 0.00 0.00 0.00 58 1016.8
20260506170726 84 335 3.0 10.0 0.00 0.00 0.00 58 1016.8
20260506170212 84 231 1.0 10.0 0.00 0.00 0.00 59 1016.9
20260506165735 84 268 1.0 7.0 0.00 0.00 0.00 60 1016.9
20260506165239 84 284 3.0 7.0 0.00 0.00 0.00 59 1016.9
20260506164743 84 325 2.0 5.0 0.00 0.00 0.00 60 1017.0
20260506164224 84 275 1.0 6.0 0.00 0.00 0.00 60 1017.1
20260506163708 84 149 3.0 6.0 0.00 0.00 0.00 60 1017.2
20260506163213 84 245 2.0 5.0 0.00 0.00 0.00 60 1017.3
20260506162717 83 152 1.0 10.0 0.00 0.00 0.00 61 1017.3
20260506162221 83 227 4.0 10.0 0.00 0.00 0.00 62 1017.5
20260506161710 83 295 3.0 7.0 0.00 0.00 0.00 61 1017.3
20260506161215 83 272 4.0 11.0 0.00 0.00 0.00 62 1017.4
20260506160722 83 286 5.0 11.0 0.00 0.00 0.00 63 1017.5
20260506160217 83 278 2.0 6.0 0.00 0.00 0.00 62 1017.5
20260506155741 82 260 3.0 8.0 0.00 0.00 0.00 63 1017.5
20260506155224 82 262 4.0 8.0 0.00 0.00 0.00 64 1017.5
20260506154708 82 282 2.0 6.0 0.00 0.00 0.00 67 1017.5
20260506154232 82 276 3.0 7.0 0.00 0.00 0.00 64 1017.5
20260506153716 82 273 2.0 7.0 0.00 0.00 0.00 66 1017.5
20260506153239 82 290 2.0 4.0 0.00 0.00 0.00 67 1017.6
20260506152726 82 64 2.0 4.0 0.00 0.00 0.00 66 1017.7
20260506152227 82 167 1.0 5.0 0.00 0.00 0.00 66 1017.7
20260506151710 82 283 1.0 5.0 0.00 0.00 0.00 66 1017.7
20260506151213 82 78 1.0 4.0 0.00 0.00 0.00 65 1017.6
20260506150717 82 316 2.0 5.0 0.00 0.00 0.00 67 1017.5
20260506150220 81 124 0.0 5.0 0.00 0.00 0.00 67 1017.4
20260506145723 81 194 1.0 6.0 0.00 0.00 0.00 67 1017.5
20260506145227 81 142 1.0 6.0 0.00 0.00 0.00 67 1017.4
20260506144725 81 106 3.0 6.0 0.00 0.00 0.00 68 1017.3
20260506144210 81 291 1.0 5.0 0.00 0.00 0.00 69 1017.4
20260506143735 80 144 3.0 8.0 0.00 0.00 0.00 69 1017.3
20260506143217 80 130 3.0 8.0 0.00 0.00 0.00 70 1017.4
20260506142725 80 156 3.0 6.0 0.00 0.00 0.00 71 1017.3
20260506142208 80 208 2.0 6.0 0.00 0.00 0.00 72 1017.3
20260506141713 80 176 1.0 4.0 0.00 0.00 0.00 73 1017.3
20260506141237 80 86 1.0 6.0 0.00 0.00 0.00 74 1017.3
20260506140724 79 189 3.0 6.0 0.00 0.00 0.00 74 1017.2
20260506140224 79 47 3.0 5.0 0.00 0.00 0.00 75 1017.2
20260506135708 79 197 2.0 5.0 0.00 0.00 0.00 75 1017.3
20260506135212 79 125 2.0 5.0 0.00 0.00 0.00 76 1017.2
20260506134716 78 126 2.0 5.0 0.00 0.00 0.00 77 1017.2
20260506134218 78 146 1.0 4.0 0.00 0.00 0.00 77 1017.2
20260506133721 78 203 1.0 4.0 0.00 0.00 0.00 78 1017.2
20260506133225 77 142 2.0 6.0 0.00 0.00 0.00 77 1017.2
20260506132713 77 217 0.0 6.0 0.00 0.00 0.00 79 1017.2
20260506132237 77 227 2.0 4.0 0.00 0.00 0.00 79 1017.2
20260506131719 76 132 1.0 4.0 0.00 0.00 0.00 79 1017.1
20260506131223 76 138 1.0 6.0 0.00 0.00 0.00 79 1017.0
20260506130726 76 194 1.0 3.0 0.00 0.00 0.00 79 1016.9
20260506130210 75 160 0.0 2.0 0.00 0.00 0.00 80 1016.8
20260506125713 74 114 1.0 3.0 0.00 0.00 0.00 80 1016.9
20260506125208 74 151 0.0 3.0 0.00 0.00 0.00 81 1016.9
20260506124712 73 190 0.0 2.0 0.00 0.00 0.00 83 1016.9
20260506124216 71 200 0.0 0.0 0.00 0.00 0.00 85 1017.0
20260506123719 71 187 0.0 0.0 0.00 0.00 0.00 86 1017.1
20260506123224 70 187 0.0 0.0 0.00 0.00 0.00 86 1017.0
20260506122712 69 187 0.0 0.0 0.00 0.00 0.00 86 1017.0
20260506122208 69 187 0.0 0.0 0.00 0.00 0.00 87 1017.1
20260506121711 69 187 0.0 0.0 0.00 0.00 0.00 89 1017.0
20260506121216 68 187 0.0 0.0 0.00 0.00 0.00 90 1017.0
20260506120732 66 188 0.0 0.0 0.00 0.00 0.00 91 1016.9
20260506120235 65 187 0.0 0.0 0.00 0.00 0.00 90 1016.8
20260506115717 65 187 0.0 0.0 0.00 0.00 0.00 90 1016.8
20260506115221 64 187 0.0 0.0 0.00 0.00 0.00 91 1016.8
20260506114745 64 187 0.0 0.0 0.00 0.00 0.00 91 1016.8
20260506114217 64 187 0.0 0.0 0.00 0.00 0.00 91 1016.8
20260506113719 63 187 0.0 0.0 0.00 0.00 0.00 91 1016.7
20260506113223 63 187 0.0 0.0 0.00 0.00 0.00 91 1016.6
20260506112220 63 187 0.0 0.0 0.00 0.00 0.00 92 1016.6
20260506111224 62 187 0.0 0.0 0.00 0.00 0.00 92 1016.5
20260506110712 62 187 0.0 0.0 0.00 0.00 0.00 93 1016.5
20260506110216 61 187 0.0 0.0 0.00 0.00 0.00 93 1016.3
20260506105720 61 187 0.0 0.0 0.00 0.00 0.00 93 1016.2
20260506105244 61 187 0.0 0.0 0.00 0.00 0.00 92 1016.1
20260506104747 60 187 0.0 0.0 0.00 0.00 0.00 92 1016.1
20260506104229 60 187 0.0 0.0 0.00 0.00 0.00 92 1016.1
20260506103712 61 187 0.0 0.0 0.00 0.00 0.00 92 1016.1
20260506103216 61 189 0.0 0.0 0.00 0.00 0.00 92 1016.0
20260506102720 61 190 0.0 0.0 0.00 0.00 0.00 92 1016.1
20260506102223 61 190 0.0 0.0 0.00 0.00 0.00 92 1016.0
20260506101727 61 190 0.0 0.0 0.00 0.00 0.00 92 1016.0